Погода в Серафимовиче

Погода в Серафимовиче : погода сейчас, прогноз погоды и архив. Всё, что Вы хотите узнать о погоде в Серафимовиче!

Поиск расширенной информации на нашем сайте:

Другие новости

Новости СМИ2

Главная страница сайта

Новости сайта

02.10.2013

Напоминаем, что на нашем новом сайте вы можете получить высокодетализированные прогнозы погоды по пунктам России, СНГ и мира (включающие важные для авиации метеовеличины, такие как направление и скорость ветра, видимость, явления погоды, количество и форма облачности, нижняя и верхняя граница облачности), а также ознакомиться с разнообразными материалами по авиационной метеорологии и подборкой полезных ссылок на эту тему.

Сайт Метеоцентр.Азия посвящён разработке технологий оптимизации авиаметеорологического обслуживания, включая проектирование и перспективное создание нескольких автоматизированных авиаметеорологических систем:
- система выпуска высокодетальных прогностических карт явлений погоды для нижнего воздушного пространства по России и ближнему зарубежью;
- система верификации прогнозов TAF (выпускаемых синоптиками официальных АМСГ РФ и ближнего зарубежья) и AUTOTAF (выпускаемых сайтом Метеоцентр.Азия) - выявление ошибок, онлайн-сопоставление с фактической погодой METAR, автоматическое внесение коррективов в прогнозы при резком отклонении фактической погоды от прогноза, подсчёт оправдываемости прогнозов по элементам и в целом;
- система обработки, анализа и отображения авиаметеорологической информации для применения провайдерами метеорологической информации.

Рекомендуем: Работаем с овощами и салатами. Для ускорения работы используйте яйцерезку, это удобно.

Погода в Серафимовиче - сегодня

Время (UTC), дата Ветер
(°,м/с) 
Видим.   Явления Облачность Т
(°С)
Тd
(°С)
f(%) Тe
(°С)
Pmin
(гПа)
dP
(гПа)
Po
(мм)
O2
(г/м3)
Тmin Tmax R s Состояние
почвы
03 18.01.17 350 (С) 20000 м    10/10 300 м 
[Sc]
-6.3 -7.7 90 -8  1033.4  0.2  763  315  -6.3      11  равномерный
сухой снег
100% 
06 18.01.17 310 (СЗ) 20000 м    10/10 300 м 
[Sc]
-6.4 -7.7 90 -6  1034.6  1.2  764  316  -6.6         
09 18.01.17 030 (СВ) 20000 м    10/10 600 м 
[Sc]
-5.9 -7.7 87 -8  1035.2  0.6  764  316           
12 18.01.17 040 (СВ) 20000 м    9/9 600 м 
[Sc]
-5.8 -8.1 84 -7  1034.9  -0.3  764  315           
15 18.01.17 310 (СЗ) 20000 м    ясно 
-8 -9.2 91 -8  1036  0.9  765  318    -5.6       
18 18.01.17 350 (С) 20000 м    10/10 600 м 
[Sc]
-7.1 -8.4 90 -9  1036.2  0.3  765  317           
21 18.01.17 330 (СЗ) 20000 м    10/10 600 м 
[Sc]
-7.6 -8.8 91 -10  1036  -0.2  765  318           
00 19.01.17 340 (С) 10 км    10/10 300 м 
[Sc]
-7.4 -8.5 92 -10  1035.7  -0.3  764  317           
03 19.01.17 350 (С) 20000 м    10/10 600 м 
[Sc]
-7.5 -8.6 92 -9  1035.6  0.1  764  318  -8.4      11  равномерный
мокрый или
старый снег
100% 
06 19.01.17 320 (СЗ) 20000 м    10/10 600 м 
[Sc]
-6.8 -9.4 82 -8  1036.1  0.5  765  317           
09 19.01.17 280 (З) 20000 м    10/10 600 м 
[Sc]
-6.1 -9.1 79 -6  1035.7  -0.3  764  316           
12 19.01.17 280 (З) 20000 м    4/4 300 м 
[Cu hum]
-5.1 -8.9 75 -5  1034.2  -1.4  763  314           
15 19.01.17 230 (ЮЗ) 20000 м    6/6 300 м 
[Sc]
-8 -10.2 84 -11  1033.5  -0.9  763  318    -4.7       
18 19.01.17 230 (ЮЗ) 20000 м    6/6 300 м 
[Sc]
-9.4 -11 88 -12  1032.8  -0.8  762  319           
21 19.01.17 240 (ЮЗ) н/о    н/о 
-10.2 -12.2 85 -14  1031.5  -1.3  761  320           
00 20.01.17 240 (ЮЗ) н/о    н/о 
-11 -13.1 84 -15  1029.6  -1.9  760  320           
03 20.01.17 240 (ЮЗ) 4-10{10}  20000 м    6/6 300 м 
[Sc]
-10.6 -13 82 -15  1026.8  -2.8  758  319  -11.1      11  равномерный
мокрый или
старый снег
100% 
06 20.01.17 240 (ЮЗ) 4{11}  20000 м    10/0 средняя, верхняя 
[Ac trans|Cs]
-9.9 -12.4 82 -14  1025.1  -1.5  756  317           
12 20.01.17 240 (ЮЗ) 5{14}  10 км  слаб. ливневой снег  10/8 300 м кучево-дожд., средняя 
[Cb cap|Ac und]
-7.5 -10.1 82 -12  1020.3  -2.2  753  313           
15 20.01.17 250 (З) 3{12}  10 км  слаб. ливневой снег  10/10 300 м кучево-дожд. 
[Cb cap]
-7.6 -9.8 84 -10  1019.6  -0.8  752  313    -7.3  0.3     
18 20.01.17 250 (З) 10 км  слаб. ливневой снег  10/10 300 м кучево-дожд. 
[Cb cap]
-7.1 -8 93 -10  1019.3  -0.2  752  312           
21 20.01.17 250 (З) 10 км  {ливн. осадки}  10/10 300 м 
[Sc]
-6.2 -7.1 93 -9  1019.1  -0.2  752  311           
00 21.01.17 250 (З) 10 км  {ливн. осадки}  10/10 300 м 
[Sc]
-5.6 -6.8 91 -7  1018.5  -0.6  752  310           
06 21.01.17 240 (ЮЗ) 20000 м    10/10 600 м 
[Sc]
-4.8 -6.4 89 -7  1016.9  -0.4  751  309           
09 21.01.17 240 (ЮЗ) 4{10}  20000 м    10/10 600 м 
[Sc]
-3.4 -5.6 85 -6  1015.3  -1.4  750  306           
Время (UTC), дата Ветер
(°,м/с) 
Видим.   Явления Облачность Т
(°С)
Тd
(°С)
f(%) Тe
(°С)
Pmin
(гПа)
dP
(гПа)
Po
(мм)
O2
(г/м3)
Тmin Tmax R s Состояние
почвы

Для получения пояснительной информации подведите курсор к названию столбца.

ПОГОДА в Серафимовиче - архив

Всё, что Вы хотите узнать о погоде в Серафимовиче - удобно и подробно!

Выберите нужную дату (начиная с 1 января 2015* года) и нажмите кнопку "Найти".
Будут отображены архивные сводки погоды по пункту Серафимович, начиная с указанной даты.


Отображать данные в формате CSV (для использования в таблицах Excel)


Внимание! Наш архив погоды предназначен исключительно для личного некоммерческого использования в познавательных целях. Если Вам необходимы официальные справки о состоянии погоды (для производственных, юридических, коммерческих и т.п. целей), обращайтесь в органы Росгидромета.

*Примечание: данная дата относится к архиву по метеостанциям СССР (Россия, СНГ, Балтия).
Архив по метеостанциям Зарубежной Европы и Азии (кроме Китая) хранится 10 дней, по другим регионам земного шара (Китай, Африка, Америка, Австралия, Океания) - 1 день.

Серафимович - район местоположения метеостанции


Название, широта, долгота, высота метеостанции:
Серафимович 49.6°ш. 42.8°д. 200 м над ур. моря [Российская Федерация]

Дополнительная информация

В oтличие oт бoльшинства пoгoдных сайтoв мы публикуем пoдрoбную метеoинфoрмацию в детальнoм прoфессиoнальнoм фoрмате.

Характеристики температуры и влажнoсти вoздуха измеряются на высoте 2 м в тени вдали oт зданий и деревьев.
Скoрoсть ветра измеряется на высoте 10 м (на урoвне рoста челoвека скoрoсть ветра ниже в 1.5-2 раза). Если метеoстанция нахoдится в гoрoде или в лесу, тo скoрoсть ветра занижена на 2-4 м/с пo сравнению с oткрытым местoм. Скoрoсть ветра над акватoриями крупных рек и oзёр, а также на вершинах хoлмoв на 2-5 м/с выше, чем в oбычных услoвиях.
Атмoсфернoе давление в разных тoчках местнoсти мoжет значительнo oтличаться oт давления на метеoстанции, в зависимoсти oт услoвий рельефа (при пoдъёме на 10 м давление пoнижается примернo на 1 мм рт.ст.).